Retour au catalogue

BREEZE-M DEB

LostHEO
NORAD 38635·DEBRIS·🇷🇺 Russia

Lancé Mar 14, 2008 depuis Baikonur Cosmodrome

Loading…

Prochains Passages (prochaines 24 heures)

TLE

PériméSource: Space-Track

Époque: Feb 29, 2016, 06:52 UTC

1 38635U 08011CJ  16060.28620741  .00003757  00000-0  14457+0 0  9990
2 38635  48.7782 222.0968 6366002 182.1778  73.2633  3.07351425 54833

Suivez BREEZE-M DEB en temps réel avec AllMySat

Download on the App Store